#datetime,building,power
2023-10-13T00:00:00,pth,2.40
2023-10-13T00:02:00,pth,3.60
2023-10-13T00:03:00,pth,1.20
2023-10-13T00:05:00,pth,2.40
2023-10-13T00:07:00,pth,2.40
2023-10-13T00:08:00,pth,1.20
2023-10-13T00:10:00,pth,4.80
2023-10-13T00:12:00,pth,4.80
2023-10-13T00:13:00,pth,2.40
2023-10-13T00:14:00,pth,1.20
2023-10-13T00:15:00,pth,1.20
2023-10-13T00:17:00,pth,2.40
2023-10-13T00:19:00,pth,2.40
2023-10-13T00:21:00,pth,2.40
2023-10-13T00:22:00,pth,1.20
2023-10-13T00:23:00,pth,1.20
2023-10-13T00:25:00,pth,2.40
2023-10-13T00:27:00,pth,3.60
2023-10-13T00:28:00,pth,1.20
2023-10-13T00:29:00,pth,1.20
2023-10-13T00:30:00,pth,1.20
2023-10-13T00:32:00,pth,2.40
2023-10-13T00:34:00,pth,2.40
2023-10-13T00:35:00,pth,2.40
2023-10-13T00:37:00,pth,2.40
2023-10-13T00:38:00,pth,1.20
2023-10-13T00:40:00,pth,2.40
2023-10-13T00:41:00,pth,1.20
2023-10-13T00:43:00,pth,2.40
2023-10-13T00:44:00,pth,1.20
2023-10-13T00:46:00,pth,2.40
2023-10-13T00:47:00,pth,2.40
2023-10-13T00:49:00,pth,4.80
2023-10-13T00:50:00,pth,2.40
2023-10-13T00:52:00,pth,4.80
2023-10-13T00:54:00,pth,3.60
2023-10-13T00:56:00,pth,2.40
2023-10-13T00:58:00,pth,3.60
2023-10-13T00:59:00,pth,2.40
2023-10-13T01:01:00,pth,2.40
2023-10-13T01:03:00,pth,2.40
2023-10-13T01:05:00,pth,2.40
2023-10-13T01:07:00,pth,2.40
2023-10-13T01:08:00,pth,1.20
2023-10-13T01:10:00,pth,1.20
2023-10-13T01:11:00,pth,1.20
2023-10-13T01:13:00,pth,3.60
2023-10-13T01:14:00,pth,1.20
2023-10-13T01:15:00,pth,1.20
2023-10-13T01:17:00,pth,2.40
2023-10-13T01:19:00,pth,2.40
2023-10-13T01:20:00,pth,1.20
2023-10-13T01:22:00,pth,2.40
2023-10-13T01:24:00,pth,4.80
2023-10-13T01:26:00,pth,4.80
2023-10-13T01:28:00,pth,4.80
2023-10-13T01:30:00,pth,3.60
2023-10-13T01:31:00,pth,1.20
2023-10-13T01:33:00,pth,2.40
2023-10-13T01:34:00,pth,1.20
2023-10-13T01:35:00,pth,2.40
2023-10-13T01:37:00,pth,2.40
2023-10-13T01:38:00,pth,1.20
2023-10-13T01:40:00,pth,3.60
2023-10-13T01:41:00,pth,1.20
2023-10-13T01:42:00,pth,1.20
2023-10-13T01:44:00,pth,2.40
2023-10-13T01:45:00,pth,1.20
2023-10-13T01:46:00,pth,1.20
2023-10-13T01:48:00,pth,3.60
2023-10-13T01:50:00,pth,2.40
2023-10-13T01:52:00,pth,2.40
2023-10-13T01:53:00,pth,1.20
2023-10-13T01:55:00,pth,2.40
2023-10-13T01:56:00,pth,1.20
2023-10-13T01:58:00,pth,2.40
2023-10-13T01:59:00,pth,2.40
2023-10-13T02:01:00,pth,4.80
2023-10-13T02:02:00,pth,2.40
2023-10-13T02:04:00,pth,4.80
2023-10-13T02:05:00,pth,2.40
2023-10-13T02:07:00,pth,2.40
2023-10-13T02:09:00,pth,2.40
2023-10-13T02:11:00,pth,2.40
2023-10-13T02:13:00,pth,2.40
2023-10-13T02:14:00,pth,1.20
2023-10-13T02:16:00,pth,2.40
2023-10-13T02:17:00,pth,1.20
2023-10-13T02:19:00,pth,2.40
2023-10-13T02:22:00,pth,2.40
2023-10-13T02:24:00,pth,2.40
2023-10-13T02:25:00,pth,1.20
2023-10-13T02:27:00,pth,2.40
2023-10-13T02:28:00,pth,1.20
2023-10-13T02:30:00,pth,2.40
2023-10-13T02:32:00,pth,3.60
2023-10-13T02:33:00,pth,1.20
2023-10-13T02:35:00,pth,4.80
2023-10-13T02:37:00,pth,4.80
2023-10-13T02:38:00,pth,2.40
2023-10-13T02:40:00,pth,2.40
2023-10-13T02:41:00,pth,1.20
2023-10-13T02:43:00,pth,2.40
2023-10-13T02:44:00,pth,1.20
2023-10-13T02:46:00,pth,2.40
2023-10-13T02:47:00,pth,1.20
2023-10-13T02:49:00,pth,2.40
2023-10-13T02:51:00,pth,2.40
2023-10-13T02:53:00,pth,2.40
2023-10-13T02:55:00,pth,2.40
2023-10-13T02:57:00,pth,2.40
2023-10-13T02:59:00,pth,2.40
2023-10-13T03:01:00,pth,2.40
2023-10-13T03:02:00,pth,2.40
2023-10-13T03:03:00,pth,1.20
2023-10-13T03:05:00,pth,3.60
2023-10-13T03:07:00,pth,4.80
2023-10-13T03:09:00,pth,3.60
2023-10-13T03:10:00,pth,2.40
2023-10-13T03:12:00,pth,2.40
2023-10-13T03:14:00,pth,2.40
2023-10-13T03:15:00,pth,1.20
2023-10-13T03:16:00,pth,1.20
2023-10-13T03:18:00,pth,2.40
2023-10-13T03:20:00,pth,2.40
2023-10-13T03:22:00,pth,2.40
2023-10-13T03:25:00,pth,2.40
2023-10-13T03:26:00,pth,1.20
2023-10-13T03:27:00,pth,1.20
2023-10-13T03:29:00,pth,2.40
2023-10-13T03:31:00,pth,2.40
2023-10-13T03:33:00,pth,1.20
2023-10-13T03:35:00,pth,2.40
2023-10-13T03:37:00,pth,4.80
2023-10-13T03:38:00,pth,1.20
2023-10-13T03:40:00,pth,4.80
2023-10-13T03:41:00,pth,2.40
2023-10-13T03:42:00,pth,1.20
2023-10-13T03:44:00,pth,1.20
2023-10-13T03:45:00,pth,1.20
2023-10-13T03:47:00,pth,1.20
2023-10-13T03:49:00,pth,2.40
2023-10-13T03:51:00,pth,2.40
2023-10-13T03:53:00,pth,2.40
2023-10-13T03:55:00,pth,1.20
2023-10-13T03:57:00,pth,2.40
2023-10-13T03:58:00,pth,1.20
2023-10-13T04:00:00,pth,1.20
2023-10-13T04:01:00,pth,1.20
2023-10-13T04:03:00,pth,2.40
2023-10-13T04:05:00,pth,3.60
2023-10-13T04:06:00,pth,2.40
2023-10-13T04:08:00,pth,3.60
2023-10-13T04:09:00,pth,2.40
2023-10-13T04:11:00,pth,3.60
2023-10-13T04:13:00,pth,2.40
2023-10-13T04:14:00,pth,1.20
2023-10-13T04:16:00,pth,3.60
2023-10-13T04:18:00,pth,2.40
2023-10-13T04:20:00,pth,2.40
2023-10-13T04:21:00,pth,1.20
2023-10-13T04:23:00,pth,2.40
2023-10-13T04:25:00,pth,2.40
2023-10-13T04:27:00,pth,2.40
2023-10-13T04:29:00,pth,2.40
2023-10-13T04:31:00,pth,2.40
2023-10-13T04:33:00,pth,1.20
2023-10-13T04:34:00,pth,1.20
2023-10-13T04:36:00,pth,3.60
2023-10-13T04:37:00,pth,2.40
2023-10-13T04:39:00,pth,3.60
2023-10-13T04:41:00,pth,4.80
2023-10-13T04:42:00,pth,1.20
2023-10-13T04:43:00,pth,1.20
2023-10-13T04:45:00,pth,2.40
2023-10-13T04:47:00,pth,1.20
2023-10-13T04:49:00,pth,2.40
2023-10-13T04:51:00,pth,1.20
2023-10-13T04:53:00,pth,2.40
2023-10-13T04:54:00,pth,1.20
2023-10-13T04:56:00,pth,2.40
2023-10-13T04:58:00,pth,1.20
2023-10-13T05:00:00,pth,2.40
2023-10-13T05:01:00,pth,1.20
2023-10-13T05:03:00,pth,2.40
2023-10-13T05:04:00,pth,1.20
2023-10-13T05:06:00,pth,4.80
2023-10-13T05:08:00,pth,3.60
2023-10-13T05:09:00,pth,2.40
2023-10-13T05:11:00,pth,3.60
2023-10-13T05:13:00,pth,2.40
2023-10-13T05:15:00,pth,3.60
2023-10-13T05:16:00,pth,1.20
2023-10-13T05:18:00,pth,2.40
2023-10-13T05:20:00,pth,2.40
2023-10-13T05:22:00,pth,1.20
2023-10-13T05:24:00,pth,2.40
2023-10-13T05:26:00,pth,2.40
2023-10-13T05:27:00,pth,1.20
2023-10-13T05:28:00,pth,1.20
2023-10-13T05:30:00,pth,2.40
2023-10-13T05:31:00,pth,1.20
2023-10-13T05:33:00,pth,4.80
2023-10-13T05:35:00,pth,3.60
2023-10-13T05:36:00,pth,2.40
2023-10-13T05:38:00,pth,3.60
2023-10-13T05:40:00,pth,2.40
2023-10-13T05:42:00,pth,2.40
2023-10-13T05:43:00,pth,1.20
2023-10-13T05:45:00,pth,2.40
2023-10-13T05:47:00,pth,3.60
2023-10-13T05:49:00,pth,2.40
2023-10-13T05:51:00,pth,2.40
2023-10-13T05:52:00,pth,1.20
2023-10-13T05:54:00,pth,2.40
2023-10-13T05:56:00,pth,2.40
2023-10-13T05:57:00,pth,1.20
2023-10-13T05:58:00,pth,1.20
2023-10-13T06:00:00,pth,3.60
2023-10-13T06:01:00,pth,2.40
2023-10-13T06:03:00,pth,4.80
2023-10-13T06:04:00,pth,2.40
2023-10-13T06:06:00,pth,3.60
2023-10-13T06:08:00,pth,3.60
2023-10-13T06:10:00,pth,2.40
2023-10-13T06:12:00,pth,2.40
2023-10-13T06:14:00,pth,2.40
2023-10-13T06:16:00,pth,1.20
2023-10-13T06:17:00,pth,1.20
2023-10-13T06:19:00,pth,2.40
2023-10-13T06:20:00,pth,1.20
2023-10-13T06:22:00,pth,2.40
2023-10-13T06:24:00,pth,1.20
2023-10-13T06:26:00,pth,2.40
2023-10-13T06:28:00,pth,3.60
2023-10-13T06:30:00,pth,3.60
2023-10-13T06:32:00,pth,4.80
2023-10-13T06:33:00,pth,1.20
2023-10-13T06:35:00,pth,3.60
2023-10-13T06:36:00,pth,1.20
2023-10-13T06:37:00,pth,1.20
2023-10-13T06:39:00,pth,2.40
2023-10-13T06:42:00,pth,2.40
2023-10-13T06:43:00,pth,1.20
2023-10-13T06:45:00,pth,2.40
2023-10-13T06:47:00,pth,2.40
2023-10-13T06:48:00,pth,1.20
2023-10-13T06:49:00,pth,1.20
2023-10-13T06:51:00,pth,2.40
2023-10-13T06:53:00,pth,2.40
2023-10-13T06:55:00,pth,2.40
2023-10-13T06:56:00,pth,2.40
2023-10-13T06:57:00,pth,2.40
2023-10-13T06:59:00,pth,3.60
2023-10-13T07:00:00,pth,2.40
2023-10-13T07:02:00,pth,4.80
2023-10-13T07:03:00,pth,1.20
2023-10-13T07:04:00,pth,1.20
2023-10-13T07:05:00,pth,1.20
2023-10-13T07:07:00,pth,2.40
2023-10-13T07:09:00,pth,2.40
2023-10-13T07:11:00,pth,2.40
2023-10-13T07:13:00,pth,2.40
2023-10-13T07:14:00,pth,1.20
2023-10-13T07:15:00,pth,1.20
2023-10-13T07:17:00,pth,2.40
2023-10-13T07:19:00,pth,2.40
2023-10-13T07:21:00,pth,3.60
2023-10-13T07:22:00,pth,1.20
2023-10-13T07:24:00,pth,2.40
2023-10-13T07:25:00,pth,2.40
2023-10-13T07:27:00,pth,3.60
2023-10-13T07:29:00,pth,3.60
2023-10-13T07:31:00,pth,4.80
2023-10-13T07:32:00,pth,1.20
2023-10-13T07:34:00,pth,2.40
2023-10-13T07:36:00,pth,2.40
2023-10-13T07:37:00,pth,1.20
2023-10-13T07:39:00,pth,2.40
2023-10-13T07:40:00,pth,1.20
2023-10-13T07:42:00,pth,2.40
2023-10-13T07:44:00,pth,2.40
2023-10-13T07:46:00,pth,2.40
2023-10-13T07:48:00,pth,2.40
2023-10-13T07:49:00,pth,1.20
2023-10-13T07:51:00,pth,2.40
2023-10-13T07:53:00,pth,1.20
2023-10-13T07:55:00,pth,3.60
2023-10-13T07:57:00,pth,3.60
2023-10-13T07:58:00,pth,2.40
2023-10-13T07:59:00,pth,1.20
2023-10-13T08:00:00,pth,2.40
2023-10-13T08:02:00,pth,1.20
2023-10-13T08:03:00,pth,1.20
2023-10-13T08:05:00,pth,1.20
2023-10-13T08:07:00,pth,2.40
2023-10-13T08:08:00,pth,1.20
2023-10-13T08:10:00,pth,2.40
2023-10-13T08:12:00,pth,1.20
2023-10-13T08:13:00,pth,1.20
2023-10-13T08:15:00,pth,1.20
2023-10-13T08:17:00,pth,2.40
2023-10-13T08:19:00,pth,1.20
2023-10-13T08:21:00,pth,2.40
2023-10-13T08:23:00,pth,3.60
2023-10-13T08:25:00,pth,3.60
2023-10-13T08:26:00,pth,2.40
2023-10-13T08:27:00,pth,2.40
2023-10-13T08:28:00,pth,1.20
2023-10-13T08:30:00,pth,1.20
2023-10-13T08:32:00,pth,2.40
2023-10-13T08:34:00,pth,2.40
2023-10-13T08:36:00,pth,1.20
2023-10-13T08:37:00,pth,1.20
2023-10-13T08:39:00,pth,2.40
2023-10-13T08:42:00,pth,1.20
2023-10-13T08:44:00,pth,2.40
2023-10-13T08:46:00,pth,1.20
2023-10-13T08:47:00,pth,1.20
2023-10-13T08:49:00,pth,2.40
2023-10-13T08:50:00,pth,1.20
2023-10-13T08:52:00,pth,3.60
2023-10-13T08:54:00,pth,3.60
2023-10-13T08:56:00,pth,3.60
2023-10-13T08:58:00,pth,2.40
2023-10-13T09:00:00,pth,1.20
2023-10-13T09:02:00,pth,1.20
2023-10-13T09:03:00,pth,1.20
2023-10-13T09:05:00,pth,1.20
2023-10-13T09:08:00,pth,1.20
2023-10-13T09:10:00,pth,2.40
2023-10-13T09:12:00,pth,1.20
2023-10-13T09:13:00,pth,1.20
2023-10-13T09:15:00,pth,1.20
2023-10-13T09:16:00,pth,1.20
2023-10-13T09:18:00,pth,1.20
2023-10-13T09:19:00,pth,1.20
2023-10-13T09:21:00,pth,4.80
2023-10-13T09:23:00,pth,3.60
2023-10-13T09:24:00,pth,2.40
2023-10-13T09:25:00,pth,1.20
2023-10-13T09:27:00,pth,2.40
2023-10-13T09:29:00,pth,2.40
2023-10-13T09:31:00,pth,1.20
2023-10-13T09:33:00,pth,2.40
2023-10-13T09:35:00,pth,2.40
2023-10-13T09:37:00,pth,2.40
2023-10-13T09:39:00,pth,1.20
2023-10-13T09:41:00,pth,2.40
2023-10-13T09:43:00,pth,1.20
2023-10-13T09:45:00,pth,2.40
2023-10-13T09:48:00,pth,2.40
2023-10-13T09:50:00,pth,3.60
2023-10-13T09:51:00,pth,2.40
2023-10-13T09:52:00,pth,1.20
2023-10-13T09:54:00,pth,4.80
2023-10-13T09:55:00,pth,1.20
2023-10-13T09:57:00,pth,3.60
2023-10-13T09:59:00,pth,2.40
2023-10-13T10:02:00,pth,2.40
2023-10-13T10:04:00,pth,1.20
2023-10-13T10:06:00,pth,2.40
2023-10-13T10:08:00,pth,1.20
2023-10-13T10:09:00,pth,1.20
2023-10-13T10:11:00,pth,2.40
2023-10-13T10:13:00,pth,2.40
2023-10-13T10:15:00,pth,1.20
2023-10-13T10:16:00,pth,1.20
2023-10-13T10:19:00,pth,3.60
2023-10-13T10:20:00,pth,1.20
2023-10-13T10:22:00,pth,4.80
2023-10-13T10:23:00,pth,2.40
2023-10-13T10:25:00,pth,3.60
2023-10-13T10:28:00,pth,2.40
2023-10-13T10:31:00,pth,2.40
2023-10-13T10:33:00,pth,1.20
2023-10-13T10:35:00,pth,2.40
2023-10-13T10:37:00,pth,2.40
2023-10-13T10:39:00,pth,1.20
2023-10-13T10:41:00,pth,2.40
2023-10-13T10:42:00,pth,1.20
2023-10-13T10:43:00,pth,1.20
2023-10-13T10:45:00,pth,2.40
2023-10-13T10:47:00,pth,1.20
2023-10-13T10:48:00,pth,1.20
2023-10-13T10:50:00,pth,3.60
2023-10-13T10:51:00,pth,1.20
2023-10-13T10:52:00,pth,2.40
2023-10-13T10:53:00,pth,1.20
2023-10-13T10:55:00,pth,3.60
2023-10-13T10:56:00,pth,1.20
2023-10-13T10:58:00,pth,2.40
2023-10-13T10:59:00,pth,1.20
2023-10-13T11:01:00,pth,2.40
2023-10-13T11:02:00,pth,1.20
2023-10-13T11:04:00,pth,2.40
2023-10-13T11:05:00,pth,1.20
2023-10-13T11:07:00,pth,1.20
2023-10-13T11:09:00,pth,2.40
2023-10-13T11:11:00,pth,2.40
2023-10-13T11:12:00,pth,1.20
2023-10-13T11:14:00,pth,1.20
2023-10-13T11:15:00,pth,1.20
2023-10-13T11:17:00,pth,1.20
2023-10-13T11:18:00,pth,1.20
2023-10-13T11:20:00,pth,3.60
2023-10-13T11:21:00,pth,2.40
2023-10-13T11:23:00,pth,4.80
2023-10-13T11:25:00,pth,4.80
2023-10-13T11:26:00,pth,2.40
2023-10-13T11:28:00,pth,2.40
2023-10-13T11:30:00,pth,1.20
2023-10-13T11:32:00,pth,2.40
2023-10-13T11:33:00,pth,1.20
2023-10-13T11:35:00,pth,2.40
2023-10-13T11:37:00,pth,2.40
2023-10-13T11:40:00,pth,2.40
2023-10-13T11:42:00,pth,1.20
2023-10-13T11:44:00,pth,1.20
2023-10-13T11:46:00,pth,2.40
2023-10-13T11:47:00,pth,1.20
2023-10-13T11:49:00,pth,1.20
2023-10-13T11:51:00,pth,1.20
2023-10-13T11:53:00,pth,3.60
2023-10-13T11:55:00,pth,3.60
2023-10-13T11:57:00,pth,3.60
2023-10-13T11:59:00,pth,2.40
2023-10-13T12:02:00,pth,1.20
2023-10-13T12:03:00,pth,1.20
2023-10-13T12:04:00,pth,1.20
2023-10-13T12:06:00,pth,1.20
2023-10-13T12:07:00,pth,1.20
2023-10-13T12:08:00,pth,1.20
2023-10-13T12:10:00,pth,4.80
2023-10-13T12:12:00,pth,4.80
2023-10-13T12:13:00,pth,1.20
2023-10-13T12:14:00,pth,1.20
2023-10-13T12:15:00,pth,1.20
2023-10-13T12:17:00,pth,1.20
2023-10-13T12:19:00,pth,2.40
2023-10-13T12:21:00,pth,1.20
2023-10-13T12:23:00,pth,2.40
2023-10-13T12:25:00,pth,2.40
2023-10-13T12:26:00,pth,1.20
2023-10-13T12:28:00,pth,3.60
2023-10-13T12:30:00,pth,3.60
2023-10-13T12:32:00,pth,3.60
2023-10-13T12:34:00,pth,2.40
2023-10-13T12:36:00,pth,2.40
2023-10-13T12:38:00,pth,1.20
2023-10-13T12:40:00,pth,1.20
2023-10-13T12:41:00,pth,1.20
2023-10-13T12:43:00,pth,1.20
2023-10-13T12:46:00,pth,2.40
2023-10-13T12:47:00,pth,1.20
2023-10-13T12:49:00,pth,1.20
2023-10-13T12:50:00,pth,1.20
2023-10-13T12:52:00,pth,1.20
2023-10-13T12:55:00,pth,2.40
2023-10-13T12:57:00,pth,1.20
2023-10-13T12:59:00,pth,1.20
2023-10-13T13:01:00,pth,2.40
2023-10-13T13:03:00,pth,2.40
2023-10-13T13:04:00,pth,2.40
2023-10-13T13:06:00,pth,3.60
2023-10-13T13:07:00,pth,1.20
2023-10-13T13:09:00,pth,3.60
2023-10-13T13:11:00,pth,2.40
2023-10-13T13:13:00,pth,1.20
2023-10-13T13:14:00,pth,1.20
2023-10-13T13:16:00,pth,2.40
2023-10-13T13:19:00,pth,2.40
2023-10-13T13:22:00,pth,2.40
2023-10-13T13:23:00,pth,1.20
2023-10-13T13:25:00,pth,2.40
2023-10-13T13:28:00,pth,2.40
2023-10-13T13:30:00,pth,2.40
2023-10-13T13:32:00,pth,2.40
2023-10-13T13:33:00,pth,1.20
2023-10-13T13:35:00,pth,2.40
2023-10-13T13:37:00,pth,1.20
2023-10-13T13:39:00,pth,3.60
2023-10-13T13:41:00,pth,2.40
2023-10-13T13:42:00,pth,2.40
2023-10-13T13:44:00,pth,2.40
2023-10-13T13:46:00,pth,3.60
2023-10-13T13:48:00,pth,4.80
2023-10-13T13:49:00,pth,1.20
2023-10-13T13:51:00,pth,2.40
2023-10-13T13:53:00,pth,2.40
2023-10-13T13:55:00,pth,1.20
2023-10-13T13:57:00,pth,2.40
2023-10-13T14:00:00,pth,2.40
2023-10-13T14:02:00,pth,2.40
2023-10-13T14:04:00,pth,2.40
2023-10-13T14:07:00,pth,2.40
2023-10-13T14:09:00,pth,2.40
2023-10-13T14:10:00,pth,1.20
2023-10-13T14:12:00,pth,2.40
2023-10-13T14:13:00,pth,1.20
2023-10-13T14:15:00,pth,2.40
2023-10-13T14:17:00,pth,1.20
2023-10-13T14:18:00,pth,1.20
2023-10-13T14:19:00,pth,1.20
2023-10-13T14:21:00,pth,1.20
2023-10-13T14:23:00,pth,2.40
2023-10-13T14:25:00,pth,2.40
2023-10-13T14:28:00,pth,3.60
2023-10-13T14:29:00,pth,1.20
2023-10-13T14:31:00,pth,4.80
2023-10-13T14:33:00,pth,4.80
2023-10-13T14:35:00,pth,4.80
2023-10-13T14:37:00,pth,3.60
2023-10-13T14:38:00,pth,1.20
2023-10-13T14:40:00,pth,2.40
2023-10-13T14:42:00,pth,3.60
2023-10-13T14:45:00,pth,2.40
2023-10-13T14:46:00,pth,1.20
2023-10-13T14:48:00,pth,1.20
2023-10-13T14:50:00,pth,2.40
2023-10-13T14:52:00,pth,1.20
2023-10-13T14:53:00,pth,1.20
2023-10-13T14:55:00,pth,2.40
2023-10-13T14:57:00,pth,1.20
2023-10-13T14:58:00,pth,1.20
2023-10-13T15:00:00,pth,2.40
2023-10-13T15:01:00,pth,1.20
2023-10-13T15:03:00,pth,2.40
2023-10-13T15:05:00,pth,1.20
2023-10-13T15:06:00,pth,1.20
2023-10-13T15:08:00,pth,2.40
2023-10-13T15:09:00,pth,1.20
2023-10-13T15:10:00,pth,1.20
2023-10-13T15:12:00,pth,2.40
2023-10-13T15:14:00,pth,2.40
2023-10-13T15:16:00,pth,2.40
2023-10-13T15:18:00,pth,3.60
2023-10-13T15:20:00,pth,4.80
2023-10-13T15:22:00,pth,3.60
2023-10-13T15:24:00,pth,3.60
2023-10-13T15:25:00,pth,1.20
2023-10-13T15:27:00,pth,3.60
2023-10-13T15:29:00,pth,2.40
2023-10-13T15:30:00,pth,1.20
2023-10-13T15:32:00,pth,2.40
2023-10-13T15:33:00,pth,1.20
2023-10-13T15:35:00,pth,2.40
2023-10-13T15:36:00,pth,1.20
2023-10-13T15:38:00,pth,2.40
2023-10-13T15:39:00,pth,1.20
2023-10-13T15:41:00,pth,1.20
2023-10-13T15:43:00,pth,2.40
2023-10-13T15:45:00,pth,2.40
2023-10-13T15:47:00,pth,2.40
2023-10-13T15:49:00,pth,2.40
2023-10-13T15:51:00,pth,3.60
2023-10-13T15:53:00,pth,2.40
2023-10-13T15:54:00,pth,1.20
2023-10-13T15:56:00,pth,2.40
2023-10-13T15:58:00,pth,3.60
2023-10-13T16:00:00,pth,2.40
2023-10-13T16:02:00,pth,3.60
2023-10-13T16:04:00,pth,2.40
2023-10-13T16:05:00,pth,1.20
2023-10-13T16:07:00,pth,2.40
2023-10-13T16:08:00,pth,1.20
2023-10-13T16:10:00,pth,3.60
2023-10-13T16:12:00,pth,4.80
2023-10-13T16:14:00,pth,4.80
2023-10-13T16:16:00,pth,4.80
2023-10-13T16:17:00,pth,2.40
2023-10-13T16:19:00,pth,4.80
2023-10-13T16:21:00,pth,4.80
2023-10-13T16:22:00,pth,1.20
2023-10-13T16:24:00,pth,3.60
2023-10-13T16:26:00,pth,2.40
2023-10-13T16:27:00,pth,1.20
2023-10-13T16:29:00,pth,2.40
2023-10-13T16:30:00,pth,1.20
2023-10-13T16:32:00,pth,4.80
2023-10-13T16:34:00,pth,2.40
2023-10-13T16:35:00,pth,2.40
2023-10-13T16:37:00,pth,2.40
2023-10-13T16:39:00,pth,2.40
2023-10-13T16:40:00,pth,1.20
2023-10-13T16:42:00,pth,2.40
2023-10-13T16:44:00,pth,2.40
2023-10-13T16:46:00,pth,2.40
2023-10-13T16:48:00,pth,8.40
2023-10-13T16:50:00,pth,14.40
2023-10-13T16:51:00,pth,6.00
2023-10-13T16:53:00,pth,14.40
2023-10-13T16:54:00,pth,6.00
2023-10-13T16:56:00,pth,15.60
2023-10-13T16:57:00,pth,7.20
2023-10-13T16:58:00,pth,8.40
2023-10-13T17:00:00,pth,14.40
2023-10-13T17:02:00,pth,15.60
2023-10-13T17:04:00,pth,15.60
2023-10-13T17:05:00,pth,7.20
2023-10-13T17:06:00,pth,7.20
2023-10-13T17:08:00,pth,13.20
2023-10-13T17:09:00,pth,7.20
2023-10-13T17:11:00,pth,8.40
2023-10-13T17:13:00,pth,14.40
2023-10-13T17:14:00,pth,6.00
2023-10-13T17:16:00,pth,9.60
2023-10-13T17:18:00,pth,13.20
2023-10-13T17:20:00,pth,10.80
2023-10-13T17:21:00,pth,4.80
2023-10-13T17:22:00,pth,7.20
2023-10-13T17:24:00,pth,10.80
2023-10-13T17:25:00,pth,7.20
2023-10-13T17:27:00,pth,14.40
2023-10-13T17:29:00,pth,9.60
2023-10-13T17:30:00,pth,7.20
2023-10-13T17:32:00,pth,9.60
2023-10-13T17:33:00,pth,6.00
2023-10-13T17:35:00,pth,7.20
2023-10-13T17:36:00,pth,6.00
2023-10-13T17:37:00,pth,6.00
2023-10-13T17:39:00,pth,8.40
2023-10-13T17:41:00,pth,8.40
2023-10-13T17:42:00,pth,4.80
2023-10-13T17:43:00,pth,7.20
2023-10-13T17:45:00,pth,9.60
2023-10-13T17:47:00,pth,7.20
2023-10-13T17:49:00,pth,2.40
2023-10-13T17:51:00,pth,1.20
2023-10-13T17:52:00,pth,1.20
2023-10-13T17:54:00,pth,2.40
2023-10-13T17:56:00,pth,2.40
2023-10-13T17:57:00,pth,1.20
2023-10-13T17:58:00,pth,1.20
2023-10-13T17:59:00,pth,1.20
2023-10-13T18:01:00,pth,2.40
2023-10-13T18:02:00,pth,1.20
2023-10-13T18:04:00,pth,1.20
2023-10-13T18:06:00,pth,2.40
2023-10-13T18:07:00,pth,1.20
2023-10-13T18:09:00,pth,1.20
2023-10-13T18:10:00,pth,1.20
2023-10-13T18:12:00,pth,3.60
2023-10-13T18:14:00,pth,2.40
2023-10-13T18:16:00,pth,3.60
2023-10-13T18:18:00,pth,2.40
2023-10-13T18:20:00,pth,2.40
2023-10-13T18:22:00,pth,2.40
2023-10-13T18:23:00,pth,1.20
2023-10-13T18:25:00,pth,3.60
2023-10-13T18:27:00,pth,2.40
2023-10-13T18:28:00,pth,1.20
2023-10-13T18:30:00,pth,3.60
2023-10-13T18:31:00,pth,1.20
2023-10-13T18:33:00,pth,2.40
2023-10-13T18:35:00,pth,3.60
2023-10-13T18:36:00,pth,1.20
2023-10-13T18:38:00,pth,4.80
2023-10-13T18:40:00,pth,4.80
2023-10-13T18:41:00,pth,2.40
2023-10-13T18:43:00,pth,3.60
2023-10-13T18:44:00,pth,1.20
2023-10-13T18:46:00,pth,2.40
2023-10-13T18:48:00,pth,2.40
2023-10-13T18:49:00,pth,2.40
2023-10-13T18:51:00,pth,2.40
2023-10-13T18:53:00,pth,2.40
2023-10-13T18:55:00,pth,3.60
2023-10-13T18:57:00,pth,2.40
2023-10-13T18:58:00,pth,1.20
2023-10-13T19:00:00,pth,3.60
2023-10-13T19:02:00,pth,2.40
2023-10-13T19:04:00,pth,2.40
2023-10-13T19:05:00,pth,2.40
2023-10-13T19:07:00,pth,2.40
2023-10-13T19:09:00,pth,2.40
2023-10-13T19:11:00,pth,2.40
2023-10-13T19:13:00,pth,6.00
2023-10-13T19:15:00,pth,7.20
2023-10-13T19:17:00,pth,8.40
2023-10-13T19:19:00,pth,7.20
2023-10-13T19:21:00,pth,7.20
2023-10-13T19:22:00,pth,2.40
2023-10-13T19:24:00,pth,4.80
2023-10-13T19:26:00,pth,2.40
2023-10-13T19:28:00,pth,4.80
2023-10-13T19:30:00,pth,3.60
2023-10-13T19:32:00,pth,3.60
2023-10-13T19:34:00,pth,2.40
2023-10-13T19:36:00,pth,3.60
2023-10-13T19:38:00,pth,3.60
2023-10-13T19:39:00,pth,1.20
2023-10-13T19:40:00,pth,1.20
2023-10-13T19:42:00,pth,3.60
2023-10-13T19:44:00,pth,2.40
2023-10-13T19:45:00,pth,1.20
2023-10-13T19:46:00,pth,1.20
2023-10-13T19:48:00,pth,3.60
2023-10-13T19:50:00,pth,2.40
2023-10-13T19:51:00,pth,1.20
2023-10-13T19:52:00,pth,2.40
2023-10-13T19:54:00,pth,2.40
2023-10-13T19:56:00,pth,3.60
2023-10-13T19:57:00,pth,1.20
2023-10-13T19:59:00,pth,3.60
2023-10-13T20:01:00,pth,4.80
2023-10-13T20:03:00,pth,3.60
2023-10-13T20:05:00,pth,3.60
2023-10-13T20:06:00,pth,1.20
2023-10-13T20:08:00,pth,2.40
2023-10-13T20:09:00,pth,2.40
2023-10-13T20:11:00,pth,2.40
2023-10-13T20:13:00,pth,2.40
2023-10-13T20:15:00,pth,2.40
2023-10-13T20:17:00,pth,2.40
2023-10-13T20:19:00,pth,2.40
2023-10-13T20:21:00,pth,2.40
2023-10-13T20:22:00,pth,1.20
2023-10-13T20:24:00,pth,2.40
2023-10-13T20:25:00,pth,1.20
2023-10-13T20:27:00,pth,2.40
2023-10-13T20:28:00,pth,1.20
2023-10-13T20:30:00,pth,2.40
2023-10-13T20:32:00,pth,2.40
2023-10-13T20:33:00,pth,1.20
2023-10-13T20:35:00,pth,2.40
2023-10-13T20:37:00,pth,2.40
2023-10-13T20:39:00,pth,1.20
2023-10-13T20:40:00,pth,2.40
2023-10-13T20:41:00,pth,1.20
2023-10-13T20:43:00,pth,2.40
2023-10-13T20:44:00,pth,1.20
2023-10-13T20:46:00,pth,2.40
2023-10-13T20:48:00,pth,2.40
2023-10-13T20:49:00,pth,1.20
2023-10-13T20:51:00,pth,2.40
2023-10-13T20:52:00,pth,1.20
2023-10-13T20:54:00,pth,3.60
2023-10-13T20:55:00,pth,1.20
2023-10-13T20:57:00,pth,2.40
2023-10-13T20:59:00,pth,3.60
2023-10-13T21:01:00,pth,3.60
2023-10-13T21:03:00,pth,4.80
2023-10-13T21:04:00,pth,2.40
2023-10-13T21:06:00,pth,3.60
2023-10-13T21:08:00,pth,3.60
2023-10-13T21:09:00,pth,1.20
2023-10-13T21:11:00,pth,2.40
2023-10-13T21:12:00,pth,1.20
2023-10-13T21:13:00,pth,1.20
2023-10-13T21:14:00,pth,1.20
2023-10-13T21:16:00,pth,3.60
2023-10-13T21:17:00,pth,1.20
2023-10-13T21:19:00,pth,2.40
2023-10-13T21:20:00,pth,1.20
2023-10-13T21:22:00,pth,2.40
2023-10-13T21:24:00,pth,2.40
2023-10-13T21:26:00,pth,2.40
2023-10-13T21:28:00,pth,1.20
2023-10-13T21:30:00,pth,2.40
2023-10-13T21:31:00,pth,1.20
2023-10-13T21:32:00,pth,1.20
2023-10-13T21:33:00,pth,1.20
2023-10-13T21:34:00,pth,1.20
2023-10-13T21:36:00,pth,2.40
2023-10-13T21:38:00,pth,1.20
2023-10-13T21:40:00,pth,2.40
2023-10-13T21:41:00,pth,1.20
2023-10-13T21:43:00,pth,2.40
2023-10-13T21:45:00,pth,2.40
2023-10-13T21:46:00,pth,1.20
2023-10-13T21:48:00,pth,2.40
2023-10-13T21:50:00,pth,2.40
2023-10-13T21:51:00,pth,2.40
2023-10-13T21:52:00,pth,1.20
2023-10-13T21:54:00,pth,4.80
2023-10-13T21:55:00,pth,2.40
2023-10-13T21:56:00,pth,2.40
2023-10-13T21:58:00,pth,2.40
2023-10-13T22:00:00,pth,3.60
2023-10-13T22:01:00,pth,1.20
2023-10-13T22:03:00,pth,2.40
2023-10-13T22:05:00,pth,3.60
2023-10-13T22:07:00,pth,2.40
2023-10-13T22:08:00,pth,1.20
2023-10-13T22:10:00,pth,2.40
2023-10-13T22:12:00,pth,3.60
2023-10-13T22:14:00,pth,2.40
2023-10-13T22:16:00,pth,2.40
2023-10-13T22:17:00,pth,1.20
2023-10-13T22:19:00,pth,2.40
2023-10-13T22:20:00,pth,2.40
2023-10-13T22:21:00,pth,2.40
2023-10-13T22:23:00,pth,3.60
2023-10-13T22:25:00,pth,2.40
2023-10-13T22:27:00,pth,1.20
2023-10-13T22:28:00,pth,1.20
2023-10-13T22:29:00,pth,1.20
2023-10-13T22:31:00,pth,2.40
2023-10-13T22:32:00,pth,1.20
2023-10-13T22:34:00,pth,2.40
2023-10-13T22:35:00,pth,1.20
2023-10-13T22:37:00,pth,3.60
2023-10-13T22:38:00,pth,2.40
2023-10-13T22:40:00,pth,4.80
2023-10-13T22:41:00,pth,2.40
2023-10-13T22:43:00,pth,3.60
2023-10-13T22:44:00,pth,1.20
2023-10-13T22:46:00,pth,2.40
2023-10-13T22:47:00,pth,1.20
2023-10-13T22:50:00,pth,2.40
2023-10-13T22:52:00,pth,2.40
2023-10-13T22:54:00,pth,2.40
2023-10-13T22:56:00,pth,2.40
2023-10-13T22:58:00,pth,3.60
2023-10-13T23:00:00,pth,2.40
2023-10-13T23:03:00,pth,2.40
2023-10-13T23:05:00,pth,3.60
2023-10-13T23:07:00,pth,3.60
2023-10-13T23:08:00,pth,1.20
2023-10-13T23:10:00,pth,3.60
2023-10-13T23:11:00,pth,1.20
2023-10-13T23:13:00,pth,3.60
2023-10-13T23:15:00,pth,2.40
2023-10-13T23:17:00,pth,3.60
2023-10-13T23:19:00,pth,6.00